Flag for Belgium Weather past 2 weeks in Charleroi, Belgium

Now
46 °F

Passing clouds.


Feels Like: 42 °F
Forecast: 45 / 56 °F
Wind: 8 mph from Southwest

Location: Charleroi / Gosselies

Current Time: Oct 23, 2014 at 1:13:53 AM

Latest Report: Oct 23, 2014 at 12:50 AM


Visibility: N/A

Pressure: 30.24 "Hg

Humidity: 87%

Dew point: 43 °F

Location of CharleroiLocation

Historic Weather in Charleroi — Graph

°F

Charleroi temperature yesterday

Maximum temperature yesterday: 52 °F (at 1:20 PM)
Minimum temperature yesterday: 41 °F (at 6:20 AM)
Average temperature yesterday: 47 °F

Past Weeks' High & Low Weather Summary

 TemperatureHumidityPressure
High73 °F (Oct 18, 2:20 PM)100% (Oct 11, 3:20 AM)30.24 "Hg (Oct 11, 3:20 AM)
Low41 °F (Oct 22, 6:20 AM)57% (Oct 18, 2:50 PM)29.53 "Hg (Oct 8, 9:50 PM)
Average56 °F84%29.86 "Hg
* Reported Oct 7 11:20 PM — Oct 22 11:50 PM, Charleroi, Weather by CustomWeather, © 2014

Note: Actual official high and low records may vary slightly from our data, if they occured in-between our weather recording intervals... More about our weather records

Advertising

Charleroi weather history for previous 24 hours

 ConditionsComfort  
Time TempWeatherWind HumidityBarometerVisibility
11:50 PM
Oct 22
46 °FPassing clouds.9 mph87%30.24 "HgN/A
11:20 PM46 °FPassing clouds.8 mph87%30.24 "HgN/A
10:50 PM46 °FPassing clouds.8 mph87%30.24 "HgN/A
10:20 PM46 °FPassing clouds.8 mph87%30.24 "HgN/A
9:50 PM46 °FPassing clouds.7 mph87%30.24 "HgN/A
9:20 PM46 °FPassing clouds.7 mph82%30.24 "HgN/A
8:50 PM46 °FPassing clouds.6 mph82%30.24 "HgN/A
8:20 PM46 °FPassing clouds.6 mph82%30.21 "HgN/A
7:50 PM48 °FPassing clouds.6 mph76%30.21 "HgN/A
7:20 PM48 °FPassing clouds.6 mph76%30.21 "HgN/A
6:50 PM48 °FPassing clouds.7 mph76%30.21 "HgN/A
6:20 PM50 °FPassing clouds.8 mph71%30.21 "HgN/A
5:50 PM50 °FPassing clouds.9 mph71%30.21 "HgN/A
5:20 PM52 °FPassing clouds.8 mph67%30.18 "HgN/A
4:50 PM52 °FPassing clouds.9 mph62%30.18 "HgN/A
4:20 PM52 °FPassing clouds.12 mph58%30.18 "HgN/A
3:50 PM52 °FScattered clouds.13 mph62%30.18 "HgN/A
3:20 PM52 °FScattered clouds.9 mph62%30.18 "HgN/A
2:50 PM52 °FScattered clouds.9 mph62%30.18 "HgN/A
2:20 PM52 °FScattered clouds.12 mph62%30.18 "HgN/A
1:50 PM52 °FScattered clouds.13 mph62%30.18 "HgN/A
1:20 PM52 °FScattered clouds.12 mph62%30.18 "HgN/A
12:50 PM50 °FBroken clouds.13 mph67%30.18 "HgN/A
12:20 PM50 °FScattered clouds.12 mph76%30.18 "HgN/A
11:50 AM50 °FScattered clouds.12 mph76%30.18 "HgN/A
11:20 AM48 °FPassing clouds.12 mph82%30.18 "HgN/A
10:50 AM48 °FPassing clouds.10 mph76%30.15 "HgN/A
10:20 AM46 °FPassing clouds.12 mph82%30.15 "HgN/A
9:50 AM45 °FPassing clouds.13 mph87%30.15 "HgN/A
9:20 AM43 °FPassing clouds.12 mph87%30.15 "HgN/A
8:50 AM41 °FPassing clouds.13 mph93%30.12 "HgN/A
8:20 AM41 °FPassing clouds.10 mph87%30.12 "HgN/A
7:50 AM41 °FPassing clouds.12 mph87%30.09 "HgN/A
7:20 AM41 °FPassing clouds.8 mph87%30.09 "HgN/A
6:50 AM41 °FPassing clouds.9 mph87%30.09 "HgN/A
6:20 AM41 °FPassing clouds.9 mph87%30.07 "HgN/A
5:50 AM43 °FPassing clouds.8 mph81%30.07 "HgN/A
5:20 AM43 °FPassing clouds.10 mph76%30.07 "HgN/A
4:50 AM43 °FPassing clouds.9 mph81%30.07 "HgN/A
4:20 AM45 °FPassing clouds.13 mph76%30.07 "HgN/A
3:50 AM45 °FPassing clouds.10 mph76%30.04 "HgN/A
3:20 AM45 °FPassing clouds.10 mph76%30.04 "HgN/A
2:50 AM45 °FPassing clouds.13 mph81%30.04 "HgN/A
2:20 AM45 °FPassing clouds.10 mph81%30.04 "HgN/A
1:50 AM45 °FPassing clouds.12 mph76%30.01 "HgN/A
1:20 AM45 °FPassing clouds.10 mph81%30.01 "HgN/A
Weather by CustomWeather, © 2014

See weather overviewHow to use our weather pages